You are not logged in, Click here to log in
鳥取沙丘柯南機場TTJ / RJOR 鳥取縣鳥取市
ICAO: RJOR Country: 鳥取縣鳥取市
Latitude: 35.5301 Longitude: 134.167
Total Arrivals: 2 Total Departures: 2
Latest Arrival: GC10 (RJNO-RJOR)冠鈞. 黃 Latest Departure: GC10 (RJOR-RJBD)冠鈞. 黃
Scenery:
METAR : RJOR 211200Z 13005KT 9999 FEW020 SCT030 BKN040 05/03 Q1029

鳥取沙丘柯南機場TTJ